Temp
9 9 8 8 8 7 7 7 7 7 7 6 6 6 6 6 7 7 7 8 8 8 8 8 8 8 7 7 7 7 7 7 7
8 8 8 8 8 7 7 7 7 7 7 7 6 6 6 6 7 7 7 7 7 7 7 7 7 7 7 7 7 7 7 7 7
8 8 8 8 7 8 7 8 7 7 7 7 6 6 6 6 7 7 7 7 7 7 7 7 7 7 7 7 7 7 7 7 6
9 8 8 8 8 7 8 8 8 8 7 7 7 6 6 6 6 7 7 7 7 7 7 6 6 6 6 6 6 6 6 6 6
8 8 8 8 8 7 8 8 8 7 8 7 7 7 7 7 6 7 6 7 7 6 6 6 6 6 6 6 6 6 6 6 6
8 8 8 8 8 7 7 7 7 7 7 7 7 7 7 7 7 6 6 6 6 6 6 6 6 6 6 6 6 6 6 5 5
8 8 7 8 8 7 7 7 7 7 7 7 7 7 7 7 7 6 6 6 6 6 6 6 6 6 6 6 6 5 5 5 5
8 8 8 7 7 7 7 7 7 7 7 7 7 7 7 7 7 6 6 6 6 6 6 6 6 6 5 5 6 5 5 5 5
8 7 7 7 7 7 7 7 7 7 7 7 7 7 7 7 7 7 7 6 6 6 6 6 6 6 5 5 5 5 5 5 5
7 7 7 7 7 7 7 7 7 7 7 7 7 6 7 7 7 6 6 6 6 6 6 6 6 5 5 5 5 5 5 5 5
7 7 7 7 7 6 6 6 6 6 6 7 7 7 7 7 7 7 6 6 6 6 5 6 5 5 5 5 5 5 5 5 5
6 7 7 7 7 6 7 6 6 6 7 6 6 6 6 6 7 7 6 6 6 6 6 5 5 5 5 5 5 5 5 5 5
6 6 6 6 6 6 6 6 6 6 6 6 6 6 6 6 6 6 7 6 6 6 6 5 5 5 5 5 5 5 5 5 5
5 5 6 6 6 6 6 6 6 6 5 6 5 5 6 5 6 6 6 7 6 6 6 5 5 5 5 5 5 5 5 5 5
5 5 5 5 5 5 5 5 5 6 6 5 5 5 5 5 5 5 6 6 6 6 6 6 5 5 5 5 5 4 5 5 5
4 4 4 4 4 5 5 5 5 5 5 5 4 4 5 5 6 5 6 6 6 6 6 6 5 5 5 5 4 4 4 5 5
4 4 4 4 5 5 5 5 5 5 5 5 4 4 4 5 5 6 6 5 5 6 6 6 5 5 5 5 4 4 4 4 5
3 3 3 3 4 4 4 4 5 5 5 4 4 4 4 5 5 5 5 5 5 5 5 5 5 5 5 4 4 4 4 4 4
2 2 3 3 3 4 4 4 4 4 4 4 4 5 4 4 4 5 5 5 4 5 5 5 4 5 5 5 4 4 4 4 4
2 1 1 2 2 3 3 3 4 4 4 4 3 3 4 3 4 4 4 4 4 4 4 4 4 4 4 4 4 4 4 4 4
Height
3180 3180 3180 3180 3180 3180 3180 3179 3179 3179 3180 3180 3180 3180 3180 3180 3181 3180 3179 3179 3179 3180 3180 3181 3180 3180 3180 3180 3179 3179 3179 3178 3177
3180 3180 3180 3180 3180 3180 3180 3179 3179 3178 3179 3180 3180 3180 3180 3180 3180 3180 3179 3179 3179 3180 3180 3181 3181 3181 3181 3181 3180 3179 3179 3178 3176
3179 3179 3180 3180 3179 3179 3180 3179 3179 3179 3178 3178 3179 3179 3179 3179 3179 3180 3180 3180 3179 3180 3180 3182 3182 3183 3182 3182 3181 3181 3180 3178 3177
3178 3178 3179 3179 3179 3179 3179 3179 3179 3180 3179 3179 3178 3178 3179 3178 3178 3180 3179 3180 3180 3180 3181 3181 3182 3183 3183 3183 3183 3182 3181 3179 3177
3177 3177 3177 3178 3178 3179 3178 3179 3179 3179 3180 3179 3180 3178 3178 3178 3178 3179 3179 3180 3180 3181 3181 3182 3182 3183 3183 3184 3182 3182 3181 3179 3178
3174 3175 3175 3176 3176 3176 3176 3176 3178 3179 3179 3179 3179 3179 3178 3177 3177 3179 3179 3180 3180 3181 3181 3182 3182 3183 3183 3183 3183 3182 3181 3180 3178
3172 3172 3172 3173 3174 3174 3174 3175 3176 3177 3178 3178 3177 3177 3177 3178 3177 3178 3178 3179 3180 3180 3181 3182 3182 3182 3182 3183 3182 3182 3181 3179 3178
3168 3169 3170 3170 3171 3172 3173 3173 3174 3175 3175 3176 3176 3176 3176 3176 3176 3177 3178 3178 3179 3180 3180 3181 3182 3182 3182 3182 3182 3181 3180 3179 3178
3163 3165 3166 3167 3168 3169 3170 3171 3172 3173 3173 3174 3174 3174 3174 3173 3174 3175 3175 3177 3177 3178 3180 3180 3181 3181 3181 3181 3181 3180 3179 3178 3177
3158 3160 3161 3163 3164 3165 3167 3168 3169 3170 3170 3171 3171 3172 3172 3171 3171 3173 3173 3174 3176 3177 3177 3178 3179 3179 3179 3180 3180 3179 3178 3177 3176
3153 3154 3156 3157 3159 3160 3162 3164 3165 3166 3166 3167 3168 3168 3169 3169 3168 3171 3171 3172 3173 3174 3175 3177 3177 3178 3178 3179 3179 3178 3177 3176 3175
3147 3148 3149 3152 3153 3155 3156 3159 3160 3160 3162 3164 3164 3165 3166 3166 3167 3168 3169 3169 3170 3172 3173 3173 3175 3176 3176 3177 3177 3176 3175 3175 3174
3139 3141 3143 3145 3147 3149 3150 3152 3155 3155 3156 3158 3160 3161 3163 3164 3163 3164 3166 3167 3167 3168 3169 3171 3171 3173 3174 3175 3175 3175 3174 3173 3172
3129 3131 3135 3138 3139 3141 3143 3145 3147 3149 3150 3152 3155 3156 3156 3158 3160 3160 3161 3163 3164 3164 3166 3166 3167 3169 3170 3171 3172 3172 3172 3171 3171
3117 3121 3125 3127 3129 3133 3135 3137 3140 3143 3146 3146 3149 3150 3150 3153 3153 3155 3157 3158 3159 3161 3162 3162 3164 3164 3165 3167 3168 3168 3169 3169 3168
3104 3108 3111 3117 3118 3124 3128 3131 3132 3134 3139 3140 3141 3142 3144 3145 3148 3149 3151 3153 3155 3156 3157 3158 3159 3160 3161 3163 3164 3164 3165 3165 3165
3089 3094 3098 3104 3109 3113 3116 3120 3123 3126 3130 3130 3135 3133 3136 3138 3140 3143 3145 3147 3149 3151 3152 3152 3154 3155 3156 3158 3159 3160 3161 3161 3161
3070 3077 3083 3088 3097 3100 3105 3109 3112 3115 3119 3122 3124 3124 3124 3132 3134 3137 3140 3141 3143 3146 3148 3149 3148 3150 3151 3152 3154 3155 3156 3157 3157
3056 3061 3068 3073 3080 3085 3091 3097 3101 3105 3107 3111 3113 3117 3118 3119 3123 3128 3132 3134 3135 3137 3139 3140 3142 3143 3144 3146 3149 3150 3151 3151 3152
3041 3046 3051 3057 3065 3069 3078 3084 3089 3094 3097 3098 3103 3107 3110 3111 3114 3116 3124 3125 3127 3130 3131 3133 3134 3136 3137 3138 3141 3144 3145 3145 3146
Wind_Speed
5 4 3 1 3 3 1 1 2 1 1 1 2 2 1 1 2 2 3 4 4 4 5 5 6 7 9 9 9 11 12 12 13
6 5 4 3 2 4 4 2 2 3 1 1 2 3 3 2 1 2 2 3 3 5 5 4 5 6 7 8 9 10 11 11 12
8 7 6 5 4 3 4 3 2 1 2 2 3 4 4 3 4 2 1 1 3 4 5 4 4 5 6 6 7 9 11 11 12
11 10 8 8 7 4 4 3 3 3 3 2 3 4 5 5 4 3 3 2 2 4 4 4 3 4 4 5 6 8 10 11 12
13 12 11 10 8 7 5 6 6 4 5 4 5 5 6 6 6 3 4 3 3 3 4 4 4 4 3 3 5 7 9 10 12
15 14 14 13 11 11 9 8 6 6 5 6 6 7 8 7 7 4 4 4 4 5 5 5 5 4 3 1 3 6 9 10 10
18 17 16 16 15 15 13 11 8 7 7 7 6 7 9 9 9 6 6 6 5 6 6 6 6 5 3 1 2 6 9 10 8
23 21 20 19 17 17 15 13 11 10 9 10 10 9 9 9 9 8 8 7 7 7 8 7 7 6 4 2 2 6 8 9 6
24 23 22 21 18 18 16 14 14 14 11 10 13 12 10 11 9 9 10 9 9 9 10 9 8 7 6 4 3 5 7 8 7
25 24 24 24 23 22 20 18 17 17 18 15 14 15 14 13 12 11 12 11 10 11 11 12 11 10 8 6 5 6 7 7 7
33 32 30 27 26 25 25 22 22 21 22 21 18 17 16 16 16 12 13 14 13 13 13 13 12 12 10 8 7 8 8 7 6
38 37 37 35 33 29 28 26 28 26 25 25 23 22 20 18 18 17 15 15 15 14 14 15 15 14 12 11 9 10 9 9 8
44 42 41 40 37 34 33 32 29 29 30 27 26 25 23 22 21 20 18 17 17 17 16 16 17 15 15 13 11 11 11 9 8
50 48 45 44 43 39 37 37 35 33 33 32 29 29 26 26 25 24 22 19 18 19 18 18 19 18 17 16 14 12 12 11 9
57 55 52 50 49 47 41 42 40 37 35 34 31 33 32 29 29 27 26 24 22 19 20 20 20 20 20 19 17 15 13 12 10
62 61 59 55 54 51 49 44 42 41 38 36 35 36 37 36 34 31 29 28 24 23 22 20 22 22 22 21 20 18 16 14 13
67 66 64 62 59 57 55 52 51 48 43 43 38 41 43 39 38 37 35 30 27 26 23 24 23 24 24 23 23 21 19 18 16
64 65 68 67 63 61 59 57 55 53 50 49 49 48 50 45 42 39 37 35 31 27 22 28 25 24 26 26 25 24 22 21 19
59 62 63 66 66 66 64 60 58 55 56 53 52 49 46 49 42 43 40 38 37 35 34 32 30 27 28 27 27 26 26 24 23
53 56 59 61 60 65 63 64 62 58 55 54 51 55 49 50 49 47 41 40 37 37 38 35 31 31 30 28 28 29 27 28 27
Wind_Direction
202 195 181 161 131 122 155 170 135 77 5 278 239 263 284 10 331 56 97 91 79 88 103 103 95 93 93 87 74 58 48 44 40
227 215 211 224 182 161 225 210 205 142 136 267 254 225 253 260 263 313 108 106 106 118 123 121 107 102 99 87 68 53 51 42 35
234 224 227 237 237 214 234 254 253 218 177 194 240 237 241 264 261 201 193 151 136 136 134 129 110 108 102 85 65 51 44 36 30
240 237 232 234 245 235 255 272 282 292 282 255 223 248 254 253 248 220 204 177 181 154 154 145 135 124 105 74 49 43 36 34 22
255 255 246 240 238 251 234 282 291 291 299 297 293 273 264 268 263 196 230 202 191 188 175 172 163 147 114 75 43 31 31 22 17
252 254 255 249 243 241 243 242 268 289 292 296 301 298 289 266 260 261 248 229 205 211 197 199 186 169 146 87 29 13 16 11 15
253 251 249 249 249 248 245 256 255 268 281 283 280 287 291 290 278 249 247 257 237 229 221 212 207 196 179 203 4 357 3 2 10
248 250 251 249 249 256 255 262 262 260 270 277 278 277 281 283 284 272 267 257 257 246 238 228 225 217 214 219 328 344 351 356 6
241 246 251 254 252 254 255 260 258 267 260 261 273 273 275 274 271 261 260 257 249 247 248 241 236 228 232 240 290 323 336 346 354
245 246 249 254 258 258 253 257 258 266 273 266 258 269 274 274 278 265 264 257 256 254 244 243 244 239 233 245 270 299 313 327 343
249 252 252 254 256 257 259 257 257 260 265 268 268 264 265 271 274 265 264 263 257 250 250 249 247 246 243 252 272 292 302 309 311
249 251 255 255 253 253 256 258 257 258 259 265 266 267 267 267 272 277 264 261 261 261 254 247 250 252 249 252 267 286 292 294 298
247 249 249 253 251 251 253 254 255 260 262 263 265 268 269 269 268 270 269 266 264 259 256 253 247 248 251 252 261 277 285 287 299
245 245 246 249 250 250 251 252 251 254 261 265 262 264 262 265 267 267 269 271 265 264 259 253 248 248 248 250 257 268 273 290 298
246 245 243 243 246 248 247 250 252 253 256 260 260 261 260 258 262 265 266 268 269 262 261 261 254 247 246 247 252 259 262 273 283
244 244 245 242 244 246 249 250 254 255 253 255 260 258 259 258 259 259 264 264 268 269 267 258 257 251 249 247 251 254 257 266 273
244 244 244 244 244 245 246 248 250 253 253 253 254 256 259 260 254 267 260 263 264 265 264 266 259 254 250 247 248 252 257 259 264
249 244 243 244 242 245 247 248 248 251 253 252 255 256 255 260 256 264 261 263 261 262 270 273 263 260 252 247 248 252 253 257 261
248 251 247 245 242 242 244 246 249 249 251 252 254 257 254 261 256 258 263 263 259 263 264 267 259 258 256 252 246 249 253 254 257
248 247 249 248 243 243 241 244 245 247 249 250 247 247 254 250 261 257 255 262 262 267 264 270 251 253 257 251 251 248 252 254 256